Location: Le Petit-Vavre
(46.5081°N, 1.5239°E)
Time: 18:42:39
(UTC+00:00)

USA 306 - Pass Details

Date: 03 March 2021
Orbit: 564 x 577 km, 54.0° (Epoch: 13 April)

Event Time Altitude Azimuth Distance (km) Brightness Sun altitude
Rises 18:18:27 0° 272° (W) 2,773 9.0 -6.9°
Reaches altitude 10° 18:20:52 10° 283° (WNW) 1,874 7.1 -7.3°
Maximum altitude 18:24:46 33° 348° (NNW) 965 4.2 -8.0°
Drops below altitude 10° 18:28:38 10° 54° (NE) 1,869 5.0 -8.7°
Enters shadow 18:29:14 - 57° (ENE) 2,085 5.3 -8.8°
